Regional Weather Roundup
Issued by NWS Boston, MA

Home | Current Version | Previous Version | Text Only | Print | Product List | Glossary On
Versions: 1 2 3 4 5 6 7 8 9 10 11 12 13 14 15 16 17 18 19 20 21 22 23 24 25 26 27 28 29 30 31 32 33 34 35 36 37 38 39 40 41 42 43 44 45 46 47 48 49 50
000
ASUS41 KBOX 171110
RWRBOX

REGIONAL WEATHER ROUNDUP
NATIONAL WEATHER SERVICE TAUNTON MA
700 AM EDT TUE OCT 17 2017

NOTE:  "FAIR" INDICATES FEW OR NO CLOUDS BELOW 12,000 FEET WITH NO
SIGNIFICANT WEATHER AND/OR OBSTRUCTIONS TO VISIBILITY.

MAZALL-171200-
EASTERN MASSACHUSETTS

CITY           SKY/WX    TMP DP  RH WIND       PRES   REMARKS
BOSTON         PTCLDY    41  33  73 NW10      30.27R
BEVERLY        PTCLDY    34  32  92 NW6       30.26R WCI  29
LAWRENCE       CLEAR     39  32  76 NW3       30.28R
BEDFORD        CLEAR     31  27  85 CALM      30.26R
BLUE HILL        N/A     36  30  79 N10       30.23R WCI  28
NORWOOD        CLEAR     35  32  88 VRB5      30.27R WCI  31
MARSHFIELD     CLEAR     43  37  81 VRB6      30.24R
PLYMOUTH       CLEAR     41  34  76 NW7       30.24R
TAUNTON        CLEAR     35  31  85 CALM      30.25R
NEW BEDFORD    CLEAR     37  32  82 VRB3      30.24R
$$

MAZALL-171200-
CAPE COD AND THE ISLANDS

CITY           SKY/WX    TMP DP  RH WIND       PRES   REMARKS
FALMOUTH       PTCLDY    39  36  87 NW8       30.23R
HYANNIS        PTCLDY    49  33  54 N17G24    30.20R
CHATHAM        CLEAR     47  34  60 N7        30.21R
PROVINCETOWN   MOCLDY    48  32  53 N12G23    30.23R
NANTUCKET      CLOUDY    49  36  61 N15       30.20R
MARTHAS VNYRD  PTCLDY    44  38  79 N9        30.22R
$$

MAZALL-171200-
CENTRAL AND WESTERN MASSACHUSETTS

CITY           SKY/WX    TMP DP  RH WIND       PRES   REMARKS
WORCESTER      CLEAR     36  27  69 NW8       30.24R WCI  30
FITCHBURG      CLEAR     37  32  82 NW5       30.28R
ORANGE         PTCLDY    28  28 100 CALM      30.28R FOG
SPRINGFIELD    CLEAR     30  29  93 CALM      30.28R
WESTFIELD      CLEAR     31  29  92 NW3       30.30R
NORTH ADAMS    FOG       29  29 100 CALM      30.31R VSB 1/4
PITTSFIELD     CLEAR     30  26  85 W6        30.27R WCI  24
$$

RIZALL-171200-
RHODE ISLAND

CITY           SKY/WX    TMP DP  RH WIND       PRES   REMARKS
PROVIDENCE     PTCLDY    39  33  79 N9        30.27R
NEWPORT        CLEAR     42  35  76 N9        30.24R
BLOCK ISLAND   CLEAR     44  35  70 N17G26    30.25R
SMITHFIELD     CLEAR     32  30  92 NW7       30.26R WCI  26
WESTERLY       CLEAR     38  33  82 VRB3      30.27R
$$

CTZALL-171200-
CONNECTICUT

CITY           SKY/WX    TMP DP  RH WIND       PRES   REMARKS
BRADLEY INTL   CLEAR     36  31  82 N5        30.30R
HARTFORD       CLEAR     38  33  82 N3        30.30R
BRIDGEPORT     CLEAR     40  34  79 NW8       30.30R
DANBURY        CLEAR     34  32  92 CALM      30.32R
GROTON         CLEAR     37  31  78 N7        30.27R WCI  32
NEW HAVEN      PTCLDY    36  32  85 N3        30.31R
CHESTER        FAIR      36  34  93 NW7       30.28R WCI  30
MERIDEN        CLEAR     33  31  92 CALM      30.30R
WILLIMANTIC    CLEAR     35  32  88 CALM      30.29R
OXFORD         CLEAR     35  32  88 N7        30.29R WCI  29
$$

MEZ002-015-021-024-NHZ003-005-008-011-012-014-VTZ005-008-171200-
NORTHERN NEW ENGLAND

CITY           SKY/WX    TMP DP  RH WIND       PRES   REMARKS
PORTLAND ME    PTCLDY    35  30  82 W5        30.25R WCI  31
BANGOR ME      CLEAR     30  27  88 CALM      30.21R
CONCORD NH     CLEAR     28  25  88 E3        30.27R
MANCHESTER NH  PTCLDY    37  32  82 N7        30.26R WCI  32
NASHUA NH      CLEAR     34  32  92 NW6       30.28R WCI  29
PORTSMOUTH NH  CLEAR     35  33  89 CALM      30.24R
JAFFREY NH     CLEAR     30  29  96 CALM      30.26R
KEENE NH       NOT AVBL
BURLINGTON VT  CLEAR     32  30  92 CALM      30.28R
MT. WASHINGTON PTCLDY    16  10  79 NW45        N/A  WCI  -8
$$

NYZ052-076-171200-
EASTERN NEW YORK

CITY           SKY/WX    TMP DP  RH WIND       PRES   REMARKS
ALBANY         CLEAR     34  30  85 CALM      30.32R
NEW YORK CITY  PTCLDY    46  34  62 N13       30.31R
$$

ANZALL-171200-
MARINE OBSERVATIONS

STATION/POSITION TIME  TEMP    WIND        PRES    VSBY  WAVE
                       AIR SEA DIR/SP/G                  HT/PER
                 (UTC) (F)     (DEG/KT/KT) (MB)    (MI)  (FT/S)
BOSTON BUOY      0950   47 60  340/ 16/ 17 1022.4          5/ 7
BUZZARDS BAY     1000   45     350/ 22/ 26 1023.4R
NANTUCKET SOUND  0950   51 62  360/ 19/ 25 1021.5          3/ 4
MASS BAY-STELLWA 1004   47 60  340/ 16/ 17 1023.0R         5/ 6
ISLE OF SHOALS   1000   43     330/ 13/ 14 1023.6R
S OF BLOCK IS    NOT AVBL
$$

......................KEY.........................
  SKY/WX - SKY CONDITION/PRESENT WEATHER
  TMP    - TEMPERATURE IN FAHRENHEIT
  DWPT   - DEWPOINT IN FAHRENHEIT
  RH     - RELATIVE HUMIDITY IN PERCENT
  WIND   - DIRECTION AND SPEED IN MPH
  PRES   - MEAN SEA LEVEL PRESSURE IN INCHES OF HG
  WCI    - WIND CHILL INDEX
  VSB    - VISIBILITY IN MILES
  HX     - HEAT INDEX
  TC     - TEMPERATURE IN CELSIUS
  VRB    - VARIABLE WIND DIRECTION
  N/A    - NOT AVAILABLE



USA.gov is the U.S. government's official web portal to all federal, state and local government web resources and services.